Regional Weather Roundup
Issued by NWS

Home | Current Version | Previous Version | Text Only | Print | Product List | Glossary Off
Versions: 1 2 3 4 5 6 7 8 9 10 11 12 13 14 15 16 17 18 19 20 21 22 23 24 25 26 27 28 29 30 31 32 33 34 35 36 37 38 39 40 41 42 43 44 45 46 47 48 49 50

000
ASUS43 KDTX 151710
RWRMI
MICHIGAN HOURLY REGIONAL WEATHER ROUNDUP
NATIONAL WEATHER SERVICE DETROIT/PONTIAC MI
1200 PM EST FRI DEC 15 2017

NOTE: "FAIR" INDICATES FEW OR NO CLOUDS BELOW 12,000 FEET WITH NO
SIGNIFICANT WEATHER AND/OR OBSTRUCTION TO VISIBILITY.

MIZ047>049-052>055-059>063-066>070-074>076-081>083-151800-
SOUTHEAST LOWER MICHIGAN

CITY           SKY/WX    TMP DP  RH WIND       PRES   REMARKS
ADRIAN         CLOUDY    23  17  78 W15G22    29.85F WCI  10
ALMA           LGT SNOW  25  20  84 W12G18    29.78F WCI  14
ANN ARBOR      LGT SNOW  23  17  78 S12       29.81F WCI  12
BAD AXE        SNOW      21  18  89 S10       29.74F VSB 1/2 WCI  10
CARO           LGT SNOW  22  19  86 SW14      29.75F WCI   9
DETROIT CITY   LGT SNOW  23  18  81 SW18      29.82F WCI   9
DETROIT        LGT SNOW  28  18  66 SW18      29.83F WCI  15
FLINT          LGT SNOW  21  17  84 SW13      29.77F VSB 3/4 WCI   9
GROSSE ILE     FLURRIES  26  18  73 SW13      29.83F WCI  14
HILLSDALE      FLURRIES  23  18  80 SW13G20   29.80F WCI  11
HOWELL         LGT SNOW  22  20  90 SW10      29.77F WCI  12

CITY           SKY/WX    TMP DP  RH WIND       PRES   REMARKS
JACKSON        LGT SNOW  24  17  74 SW17G30   29.79F WCI  11
LAMBERTVILLE   FLURRIES  25  18  76 SW12G22   29.86F WCI  14
LANSING        SNOW      22  20  92 SW15      29.79F VSB 1/2 WCI   9
LAPEER         LGT SNOW  22  18  85 SW9G17    29.76F VSB 3/4 WCI  11
MASON          LGT SNOW  24  17  76 SW9       29.78F WCI  14
MONROE         FLURRIES  25  17  72 SW17G24   29.84F WCI  12
MT. CLEMENS    LGT SNOW  24  21  88 SW17      29.79F VSB 1   WCI  10
PONTIAC        LGT SNOW  21  18  88 SW12      29.76F VSB 3/4 WCI   9
PORT HOPE        N/A     22  17  81 S10       29.72F WCI  11
PORT HURON     LGT SNOW  23  18  80 S8        29.79F WCI  14
TRI CITIES     LGT SNOW  23  20  88 SW15      29.75F FOG     WCI  10
MIDLAND        CLOUDY    25  20  81 W9G16     29.75F WCI  15
TROY           LGT SNOW  24  20  84 SW12      29.81F WCI  13
SAGINAW HB     LGT SNOW  23  19  86 SW10      29.76F WCI  12
$$
MIZ043>046-050>051-056>058-064>065-071>073-077>080-151800-
SOUTHWEST LOWER MICHIGAN

CITY           SKY/WX    TMP DP  RH WIND       PRES   REMARKS
BATTLE CREEK   LGT SNOW  25  20  81 W16       29.80F WCI  12
BENTON HARBOR  CLOUDY    27  14  58 W17G29    29.89S WCI  14
BIG RAPIDS     LGT SNOW  22  17  81 W13       29.75F WCI  10
COLDWATER      FLURRIES  24  19  82 SW13G22   29.83F WCI  13
HOLLAND        LGT SNOW  27  17  66 W18G25    29.83F WCI  14
GRAND RAPIDS   LGT SNOW  26  20  77 W10       29.80S FOG     WCI  16
IONIA          LGT SNOW  25  21  87 W5        29.78S WCI  19
KALAMAZOO      CLOUDY    26  17  68 W17G26    29.83S WCI  13
LUDINGTON      CLOUDY    24  13  64 W9G20     29.79F WCI  14
MARSHALL       FLURRIES  23  18  81 SW13G20   29.80F WCI  12
MOUNT PLEASANT MOSUNNY   25  17  69 W13G22    29.74F WCI  14
MUSKEGON       LGT SNOW  26  18  71 W17G25    29.81F VSB 1   WCI  13
SOUTH HAVEN    FLURRIES  28  17  62 W16G23    29.86S WCI  16
$$
MIZ016>042-151800-
NORTHERN LOWER MICHIGAN

CITY           SKY/WX    TMP DP  RH WIND       PRES   REMARKS
ALPENA         CLOUDY    22  19  89 SW8       29.68F WCI  12
BEAVER ISLAND  CLOUDY    26  20  77 W12G18    29.68F WCI  16
BELLAIRE       LGT SNOW  25  23  91 W6        29.70F WCI  18
CADILLAC       LGT SNOW  20  16  83 W10G17    29.69F WCI   9
CHARLEVOIX     CLOUDY    26  19  73 W13       29.71F WCI  15
FRANKFORT      CLOUDY    25  18  74 W16G25    29.76S WCI  12
GAYLORD        SNOW      21  17  84 W8        29.63F VSB 1/4 WCI  11
GRAYLING       FLURRIES  23  15  73 W10       29.67F WCI  12
HARBOR SPRINGS CLOUDY    24  18  77 W5        29.67F WCI  19
HOUGHTON LAKE  LGT SNOW  21  17  84 W10       29.69F FOG     WCI  10
MANISTEE       FLURRIES  23  16  74 W20G25    29.77F WCI   8
OSCODA         LGT SNOW  22  17  82 SW13      29.70F WCI  10
PELLSTON       PTSUNNY   23  18  81 W8        29.67F WCI  14
ROGERS CITY    CLOUDY    23  18  80 SW8       29.67F WCI  14
TRAVERSE CITY  LGT SNOW  23  19  85 W8        29.72F FOG     WCI  14
$$
MIZ007>008-015-151800-
EASTERN UPPER MICHIGAN

CITY           SKY/WX    TMP DP  RH WIND       PRES   REMARKS
KINROSS        CLOUDY    22  16  78 W7        29.64F WCI  13
MACKINAC ISLAN PTSUNNY   25  17  72 W9        29.65F WCI  16
NEWBERRY       CLOUDY    19  17  89 W12       29.64F WCI   7
S. S. MARIE    PTSUNNY   20  16  84 CALM      29.64F
MUNISING         N/A     25  18  74 W12G18    29.69F WCI  14
$$
MIZ004>006-011>014-085-151800-
CENTRAL UPPER MICHIGAN

CITY           SKY/WX    TMP DP  RH WIND       PRES   REMARKS
MANISTIQUE     CLOUDY    21  11  65 W13G18    29.69F WCI   9
ESCANABA       CLOUDY    20  12  71 W17       29.74F WCI   5
MENOMINEE      PTSUNNY   21  11  65 W7        29.80F WCI  12
SAWYER-GWINN   CLOUDY    18  14  86 W12       29.71R WCI   5
$$
MIZ001>003-009>011-084-151800-
WESTERN UPPER MICHIGAN

CITY           SKY/WX    TMP DP  RH WIND       PRES   REMARKS
IRON MOUNTAIN  MOSUNNY   18   9  68 W10       29.73F WCI   6
HOUGHTON       LGT SNOW  18   9  68 NW12      29.73S WCI   5
COPPER HARBOR    N/A     21  14  74 N21       29.74S WCI   5
IRONWOOD       LGT SNOW  12   9  85 W13       29.80S FOG     WCI  -3
$$

ABBREVIATIONS USED IN REMARKS
   TC - TEMPERATURE IN CELSIUS
  WCI - WIND CHILL INDEX
   HX - HEAT INDEX
  VSB - VISIBILITY




USA.gov is the U.S. government's official web portal to all federal, state and local government web resources and services.